Location: Bagnara
(41.0500°N, 14.7833°E)
Time: 15:09:29
(UTC+00:00)

BREEZE-M DEB (TANK) - Pass Details

Date: 20 June 2021
Orbit: 335 x 16572 km, 49.3° (Epoch: 04 August)

Event Time Altitude Azimuth Distance (km) Brightness Sun altitude
Rises 02:02:46 0° 304° (NW) 2,251 5.4 -13.1°
Reaches altitude 10° 02:04:46 10° 319° (NW) 1,275 4.3 -12.9°
Maximum altitude 02:06:50 28° 24° (NNE) 724 3.8 -12.6°
Drops below altitude 10° 02:09:38 10° 88° (E) 1,735 5.5 -12.3°
Sets 02:12:59 0° 100° (E) 3,406 6.9 -11.8°
